Regional Weather Roundup
Issued by NWS

Home | Current Version | Previous Version | Graphics & Text | Print | Product List | Glossary On
Versions: 1 2 3 4 5 6 7 8 9 10 11 12 13 14 15 16 17 18 19 20 21 22 23 24 25 26 27 28 29 30 31 32 33 34 35 36 37 38 39 40 41 42 43 44 45 46 47 48 49 50
735
ASUS44 KJAN 031210
RWRMS

MISSISSIPPI HOURLY WEATHER ROUNDUP
NATIONAL WEATHER SERVICE JACKSON MS
600 AM CST TUE MAR 03 2015

NOTE: "FAIR: INDICATES FEW OR NO CLOUDS BELOW 12,000 FEET WITH NO
SIGNIFICANT WEATHER AND/OR OBSTRUCTIONS TO VISIBILITY.

MSZ001>002-007>008-010>013-018>021-025>028-034>036-031300-
NORTHWEST MISSISSIPPI

CITY           SKY/WX    TMP DP  RH WIND       PRES   REMARKS
CLARKSDALE     CLOUDY    43  43 100 S6        30.10R VSB 1/2
CLEVELAND      FOG       43  43 100 S3        30.09S VSB 1
GREENWOOD      CLOUDY    48  47  96 CALM      30.10F FOG
6HR MIN TEMP:  45; 6HR MAX TEMP:  48;

GREENVILLE     FOG       42  41  96 S3        30.10S VSB 1/2
6HR MIN TEMP:  40; 6HR MAX TEMP:  42;

OLIVE BRANCH   CLOUDY    43 N/A N/A S6        30.09S VSB 3/4
OXFORD         FOG       45  43  93 SE5       30.11F VSB 1
TUNICA         FOG       43  41  93 W3        30.11R VSB 1/2
$$

MSZ003>006-009-014>017-022>024-029>033-037>039-031300-
NORTHEAST MISSISSIPPI

CITY           SKY/WX    TMP DP  RH WIND       PRES   REMARKS
COLUMBUS AFB   CLOUDY    49  49 100 S1        30.13S FOG
6HR MIN TEMP:  46; 6HR MAX TEMP:  49; 6HR PCP:  0.01;

CORINTH        CLOUDY    46  45  93 S6        30.11S FOG
GOLDN TRIANGLE CLOUDY    48  46  93 S6        30.13S FOG
STARKVILLE     CLOUDY    46  46 100 CALM      30.14S FOG
TUPELO         FOG       46  44  93 S3        30.13F VSB 1
6HR MIN TEMP:  44; 6HR MAX TEMP:  46;

$$

MSZ040-058-031300-
CENTRAL MISSISSIPPI

CITY           SKY/WX    TMP DP  RH WIND       PRES   REMARKS
JACKSON INTL   FOG       54  53  97 CALM      30.12F VSB 3/4
6HR MIN TEMP:  52; 6HR MAX TEMP:  54;

JACKSON HAWKNS FOG       53  53 100 CALM      30.12S VSB 1/2
6HR MIN TEMP:  51; 6HR MAX TEMP:  54;

MERIDIAN KEY   FOG       53  53 100 CALM      30.14S VSB 3/4
6HR MIN TEMP:  52; 6HR MAX TEMP:  53;

MERIDIAN NAS   FOG       52  51  97 CALM      30.15S VSB 1/2
6HR MIN TEMP:  51; 6HR MAX TEMP:  52;

VICKSBURG      FOG       46  45  96 CALM      30.12S VSB 3/4
6HR MIN TEMP:  44; 6HR MAX TEMP:  46;

$$

MSZ059>079-031300-
SOUTH MISSISSIPPI

CITY           SKY/WX    TMP DP  RH WIND       PRES   REMARKS
BROOKHAVEN     CLOUDY    55  55 100 CALM      30.14R
HATTIESBURG    FOG       60  60 100 CALM      30.15R VSB 1/2
6HR MIN TEMP:  60; 6HR MAX TEMP:  61; 6HR PCP: TRACE;

MCCOMB         FOG       62  62 100 SE3       30.12R VSB 1/4
6HR MIN TEMP:  61; 6HR MAX TEMP:  62;

NATCHEZ        CLOUDY    48  46  93 CALM      30.12R VSB 1/2
6HR MIN TEMP:  46; 6HR MAX TEMP:  48;

PINE BELT      CLOUDY    61  57  88 CALM      30.15R VSB 3/4
6HR MIN TEMP:  59; 6HR MAX TEMP:  61;

$$

MSZ080>082-031300-
COASTAL MISSISSIPPI

CITY           SKY/WX    TMP DP  RH WIND       PRES   REMARKS
BILOXI         FOG       62  62 100 S7        30.14R VSB 1/2
6HR MIN TEMP:  62; 6HR MAX TEMP:  65;

PASCAGOULA     FOG       62  62 100 SE5       30.15R VSB 1/4
6HR MIN TEMP:  62; 6HR MAX TEMP:  64;

GULFPORT       FOG       63  63 100 S8        30.13S VSB 1/2
6HR MIN TEMP:  62; 6HR MAX TEMP:  64;

$$



USA.gov is the U.S. government's official web portal to all federal, state and local government web resources and services.